Meacham, OR

2:57 AM PST on November 21, 2017 (GMT -0800)
Meacham

Weather History for KMEH - October, 2013

Change the Weather History Date:

Saturday, October 26, 2013

  Actual Average Record
Temperature  
Mean Temperature 45 °F -  
Max Temperature 64 °F 48 °F 70 °F (2003)
Min Temperature 26 °F 24 °F 14 °F (2007)
Degree Days  
Heating Degree Days 20    
Moisture  
Dew Point 32 °F    
Average Humidity 79    
Maximum Humidity 89    
Minimum Humidity 40    
Precipitation  
Precipitation 0.00 in - - ()
Sea Level Pressure  
Sea Level Pressure 30.24 in    
Wind  
Wind Speed 0 mph (North)    
Max Wind Speed 0 mph    
Max Gust Speed -    
Visibility 7 miles    
Events      
Averages and records for this station are not official NWS values.
T = Trace of Precipitation, MM = Missing Value Source: NWS Daily Summary

Daily Weather History Graph

Daily Weather History Graph

Search for Another Location

Airport or City:

Trip Planner

Search our weather history database for the weather conditions in past years. The results will help you decide how hot, cold, wet, or windy it might be!

Date:

Astronomy

Oct. 26, 2013 Rise Set
Actual Time 7:25 AM PDT 5:49 PM PDT
Civil Twilight 6:54 AM PDT 6:19 PM PDT
Nautical Twilight 6:20 AM PDT 6:54 PM PDT
Astronomical Twilight 5:45 AM PDT 7:28 PM PDT
Moon No Moon Rise 1:46 PM PDT (10/26)
Length of Visible Light 11h 24m
Length of Day
10h 23m
Waning Gibbous, 52% of the Moon is Illuminated
Oct 26
Waning Gibbous
Oct 26
Last Quarter
Nov 3
New
Nov 9
First Quarter
Nov 17
Full

Hourly Weather History & Observations

Time (PDT) Temp. Dew Point Humidity Pressure Visibility Wind Dir Wind Speed Gust Speed Precip Events Conditions
12:56 AM 30.0 °F 27.0 °F 88% 30.29 in 5.0 mi Calm Calm - N/A   Clear
1:56 AM 28.9 °F 26.1 °F 89% 30.29 in 5.0 mi Calm Calm - N/A   Clear
2:05 AM 28.9 °F 26.1 °F 89% 30.28 in 2.0 mi Calm Calm - N/A   Clear
2:14 AM 28.9 °F 26.1 °F 89% 30.28 in 7.0 mi Calm Calm - N/A   Clear
2:56 AM 28.9 °F 26.1 °F 89% 30.29 in 7.0 mi Calm Calm - N/A   Clear
3:56 AM 28.0 °F 25.0 °F 88% 30.29 in 7.0 mi Calm Calm - N/A   Clear
4:56 AM 28.0 °F 24.1 °F 85% 30.31 in 8.0 mi Calm Calm - N/A   Clear
5:56 AM 27.0 °F 24.1 °F 89% 30.32 in 10.0 mi Calm Calm - N/A   Clear
6:56 AM 26.1 °F 23.0 °F 88% 30.34 in 10.0 mi Calm Calm - N/A   Clear
7:56 AM 26.1 °F 21.9 °F 84% 30.35 in 10.0 mi Calm Calm - N/A   Clear
8:56 AM 30.0 °F 26.1 °F 85% 30.35 in 6.0 mi Calm Calm - N/A   Clear
9:56 AM 41.0 °F 36.0 °F 82% 30.33 in 10.0 mi Calm Calm - N/A   Clear
10:56 AM 55.0 °F 41.0 °F 59% 30.30 in 10.0 mi Calm Calm - N/A   Clear
11:56 AM 61.0 °F 41.0 °F 48% 30.29 in 10.0 mi Calm Calm - N/A   Clear
12:56 PM 64.0 °F 39.0 °F 40% 30.26 in 10.0 mi Calm Calm - N/A   Clear
1:56 PM 61.0 °F 43.0 °F 52% 30.27 in 10.0 mi Calm Calm - N/A   Clear
2:56 PM 61.0 °F 42.1 °F 50% 30.25 in 10.0 mi Calm Calm - N/A   Clear
3:56 PM 61.0 °F 42.1 °F 50% 30.23 in 10.0 mi Calm Calm - N/A   Clear
4:56 PM 57.0 °F 44.1 °F 62% 30.23 in 10.0 mi Calm Calm - N/A   Clear
5:56 PM 50.0 °F 42.1 °F 74% 30.24 in 10.0 mi Calm Calm - N/A   Clear
6:56 PM 44.1 °F 39.0 °F 82% 30.25 in 6.0 mi Calm Calm - N/A   Haze
7:57 PM 39.9 °F 37.0 °F 89% 30.24 in 7.0 mi Calm Calm - N/A   Unknown
8:36 PM 37.9 °F 35.1 °F 89% 30.14 in 2.5 mi Calm Calm - N/A   Clear
8:44 PM 37.0 °F 34.0 °F 89% 30.14 in 5.0 mi Calm Calm - N/A   Clear
8:56 PM 37.0 °F 34.0 °F 89% 30.20 in 7.0 mi Calm Calm - N/A   Clear
9:16 PM 36.0 °F 33.1 °F 89% 30.13 in 1.8 mi Calm Calm - N/A   Clear
9:26 PM 35.1 °F 32.0 °F 89% 30.13 in 3.0 mi Calm Calm - N/A   Clear
9:56 PM 34.0 °F 30.9 °F 89% 30.17 in 6.0 mi Calm Calm - N/A   Clear
10:04 PM 34.0 °F 30.9 °F 89% 30.12 in 1.8 mi Calm Calm - N/A   Clear
10:11 PM 34.0 °F 30.0 °F 85% 30.12 in 3.0 mi Calm Calm - N/A   Clear
10:56 PM 32.0 °F 28.9 °F 88% 30.14 in 5.0 mi Calm Calm - N/A   Clear
11:56 PM 30.0 °F 27.0 °F 88% 30.12 in 5.0 mi Calm Calm - N/A   Clear